Year,Month,Day,Hour,Minute,Value (Times are PST for windgust in km/hr)
2015,08,30,01,13,6.40
2015,08,30,01,14,1.60
2015,08,30,01,23,3.20
2015,08,30,01,24,8.10
2015,08,30,01,25,6.40
2015,08,30,01,55,1.60
2015,08,30,03,03,1.60
2015,08,30,03,13,1.60
2015,08,30,03,15,6.40
2015,08,30,03,16,6.40
2015,08,30,03,21,6.40
2015,08,30,03,22,3.20
2015,08,30,05,42,1.60
2015,08,30,06,37,3.20
2015,08,30,06,38,8.10
2015,08,30,06,39,1.60
2015,08,30,06,40,1.60
2015,08,30,06,43,6.40
2015,08,30,06,47,3.20
2015,08,30,06,48,3.20
2015,08,30,07,02,6.40
2015,08,30,07,03,6.40
2015,08,30,08,24,1.60
2015,08,30,08,29,1.60
2015,08,30,08,31,1.60
2015,08,30,08,32,4.80
2015,08,30,08,33,1.60
2015,08,30,08,52,1.60
2015,08,30,08,55,6.40
2015,08,30,08,56,3.20
2015,08,30,08,57,1.60
2015,08,30,08,58,1.60
2015,08,30,09,00,1.60
2015,08,30,09,01,3.20
2015,08,30,09,02,3.20
2015,08,30,09,12,8.10
2015,08,30,09,13,6.40
2015,08,30,09,14,9.60
2015,08,30,09,15,8.10
2015,08,30,09,16,6.40
2015,08,30,09,17,3.20
2015,08,30,09,18,6.40
2015,08,30,09,19,3.20
2015,08,30,09,23,1.60
2015,08,30,09,24,4.80
2015,08,30,09,25,8.10
2015,08,30,09,26,6.40
2015,08,30,09,27,1.60
2015,08,30,09,28,9.60
2015,08,30,09,29,11.30
2015,08,30,09,30,11.30
2015,08,30,09,31,9.60
2015,08,30,09,32,9.60
2015,08,30,09,33,4.80
2015,08,30,09,34,4.80
2015,08,30,09,36,11.30
2015,08,30,09,37,12.90
2015,08,30,09,38,12.90
2015,08,30,09,39,9.60
2015,08,30,09,40,8.10
2015,08,30,09,41,9.60
2015,08,30,09,42,6.40
2015,08,30,09,43,16.10
2015,08,30,09,44,12.90
2015,08,30,09,45,11.30
2015,08,30,09,46,9.60
2015,08,30,09,47,6.40
2015,08,30,09,48,6.40
2015,08,30,09,49,6.40
2015,08,30,09,51,1.60
2015,08,30,09,52,12.90
2015,08,30,09,53,12.90
2015,08,30,09,54,16.10
2015,08,30,09,55,12.90
2015,08,30,09,56,9.60
2015,08,30,09,57,3.20
2015,08,30,09,59,8.10
2015,08,30,10,00,11.30
2015,08,30,10,04,9.60
2015,08,30,10,05,11.30
2015,08,30,10,06,8.10
2015,08,30,10,07,6.40
2015,08,30,10,08,3.20
2015,08,30,10,09,6.40
2015,08,30,10,10,1.60
2015,08,30,10,11,9.60
2015,08,30,10,12,8.10
2015,08,30,10,13,9.60
2015,08,30,10,14,8.10
2015,08,30,10,15,9.60
2015,08,30,10,16,3.20
2015,08,30,10,17,9.60
2015,08,30,10,18,9.60
2015,08,30,10,19,1.60
2015,08,30,10,21,1.60
2015,08,30,10,25,9.60
2015,08,30,10,26,8.10
2015,08,30,10,27,9.60
2015,08,30,10,28,8.10
2015,08,30,10,29,12.90
2015,08,30,10,30,16.10
2015,08,30,10,31,11.30
2015,08,30,10,32,9.60
2015,08,30,10,33,11.30
2015,08,30,10,34,11.30
2015,08,30,10,35,12.90
2015,08,30,10,36,11.30
2015,08,30,10,37,9.60
2015,08,30,10,38,8.10
2015,08,30,10,39,11.30
2015,08,30,10,40,9.60
2015,08,30,10,41,8.10
2015,08,30,10,42,8.10
2015,08,30,10,43,9.60
2015,08,30,10,44,17.70
2015,08,30,10,45,12.90
2015,08,30,10,46,9.60
2015,08,30,10,47,9.60
2015,08,30,10,48,8.10
2015,08,30,10,49,8.10
2015,08,30,10,50,11.30
2015,08,30,10,51,9.60
2015,08,30,10,52,11.30
2015,08,30,10,53,14.50
2015,08,30,10,54,19.30
2015,08,30,10,55,12.90
2015,08,30,10,56,8.10
2015,08,30,10,57,11.30
2015,08,30,10,58,16.10
2015,08,30,10,59,16.10
2015,08,30,11,00,16.10
2015,08,30,11,01,14.50
2015,08,30,11,02,20.90
2015,08,30,11,03,11.30
2015,08,30,11,04,12.90
2015,08,30,11,05,16.10
2015,08,30,11,06,20.90
2015,08,30,11,07,9.60
2015,08,30,11,08,16.10
2015,08,30,11,09,19.30
2015,08,30,11,10,16.10
2015,08,30,11,11,11.30
2015,08,30,11,12,9.60
2015,08,30,11,13,8.10
2015,08,30,11,14,12.90
2015,08,30,11,15,14.50
2015,08,30,11,16,16.10
2015,08,30,11,17,11.30
2015,08,30,11,18,12.90
2015,08,30,11,19,9.60
2015,08,30,11,20,11.30
2015,08,30,11,21,8.10
2015,08,30,11,22,8.10
2015,08,30,11,23,12.90
2015,08,30,11,24,11.30
2015,08,30,11,25,14.50
2015,08,30,11,26,11.30
2015,08,30,11,27,9.60
2015,08,30,11,28,8.10
2015,08,30,11,29,9.60
2015,08,30,11,30,9.60
2015,08,30,11,31,16.10
2015,08,30,11,32,16.10
2015,08,30,11,33,6.40
2015,08,30,11,34,8.10
2015,08,30,11,35,12.90
2015,08,30,11,36,12.90
2015,08,30,11,37,12.90
2015,08,30,11,38,14.50
2015,08,30,11,39,14.50
2015,08,30,11,40,14.50
2015,08,30,11,41,12.90
2015,08,30,11,42,14.50
2015,08,30,11,43,17.70
2015,08,30,11,44,11.30
2015,08,30,11,45,16.10
2015,08,30,11,46,14.50
2015,08,30,11,47,12.90
2015,08,30,11,48,12.90
2015,08,30,11,49,9.60
2015,08,30,11,50,12.90
2015,08,30,11,51,12.90
2015,08,30,11,52,16.10
2015,08,30,11,53,12.90
2015,08,30,11,54,14.50
2015,08,30,11,55,20.90
2015,08,30,11,56,12.90
2015,08,30,11,57,12.90
2015,08,30,11,58,16.10
2015,08,30,11,59,12.90
2015,08,30,12,00,16.10
2015,08,30,12,01,9.60
2015,08,30,12,02,14.50
2015,08,30,12,03,14.50
2015,08,30,12,04,8.10
2015,08,30,12,05,6.40
2015,08,30,12,06,9.60
2015,08,30,12,07,8.10
2015,08,30,12,09,6.40
2015,08,30,12,10,14.50
2015,08,30,12,11,12.90
2015,08,30,12,12,14.50
2015,08,30,12,13,17.70
2015,08,30,12,14,19.30
2015,08,30,12,15,11.30
2015,08,30,12,16,8.10
2015,08,30,12,17,14.50
2015,08,30,12,18,17.70
2015,08,30,12,19,12.90
2015,08,30,12,20,8.10
2015,08,30,12,21,6.40
2015,08,30,12,22,11.30
2015,08,30,12,23,17.70
2015,08,30,12,24,11.30
2015,08,30,12,25,16.10
2015,08,30,12,26,14.50
2015,08,30,12,28,12.90
2015,08,30,12,29,14.50
2015,08,30,12,30,6.40
2015,08,30,12,31,14.50
2015,08,30,12,32,9.60
2015,08,30,12,33,12.90
2015,08,30,12,34,9.60
2015,08,30,12,35,8.10
2015,08,30,12,36,16.10
2015,08,30,12,37,17.70
2015,08,30,12,38,14.50
2015,08,30,12,39,11.30
2015,08,30,12,40,14.50
2015,08,30,12,41,14.50
2015,08,30,12,42,12.90
2015,08,30,12,43,12.90
2015,08,30,12,44,11.30
2015,08,30,12,45,14.50
2015,08,30,12,46,9.60
2015,08,30,12,47,8.10
2015,08,30,12,48,6.40
2015,08,30,12,49,16.10
2015,08,30,12,50,14.50
2015,08,30,12,51,12.90
2015,08,30,12,52,11.30
2015,08,30,12,53,11.30
2015,08,30,12,54,16.10
2015,08,30,12,55,12.90
2015,08,30,12,56,8.10
2015,08,30,12,57,1.60
2015,08,30,12,58,16.10
2015,08,30,12,59,12.90
2015,08,30,13,00,9.60
2015,08,30,13,01,12.90
2015,08,30,13,02,12.90
2015,08,30,13,03,8.10
2015,08,30,13,04,12.90
2015,08,30,13,05,12.90
2015,08,30,13,06,12.90
2015,08,30,13,07,12.90
2015,08,30,13,08,12.90
2015,08,30,13,09,16.10
2015,08,30,13,10,11.30
2015,08,30,13,11,12.90
2015,08,30,13,12,12.90
2015,08,30,13,13,11.30
2015,08,30,13,14,12.90
2015,08,30,13,15,12.90
2015,08,30,13,16,6.40
2015,08,30,13,17,16.10
2015,08,30,13,18,12.90
2015,08,30,13,19,14.50
2015,08,30,13,20,12.90
2015,08,30,13,21,8.10
2015,08,30,13,22,3.20
2015,08,30,13,23,8.10
2015,08,30,13,24,4.80
2015,08,30,13,25,8.10
2015,08,30,13,26,8.10
2015,08,30,13,27,9.60
2015,08,30,13,28,9.60
2015,08,30,13,29,9.60
2015,08,30,13,30,12.90
2015,08,30,13,31,8.10
2015,08,30,13,32,11.30
2015,08,30,13,33,9.60
2015,08,30,13,34,12.90
2015,08,30,13,35,11.30
2015,08,30,13,36,9.60
2015,08,30,13,37,11.30
2015,08,30,13,38,8.10
2015,08,30,13,39,9.60
2015,08,30,13,40,9.60
2015,08,30,13,41,8.10
2015,08,30,13,42,12.90
2015,08,30,13,43,4.80
2015,08,30,13,44,9.60
2015,08,30,13,45,11.30
2015,08,30,13,46,14.50
2015,08,30,13,47,14.50
2015,08,30,13,48,12.90
2015,08,30,13,49,12.90
2015,08,30,13,50,9.60
2015,08,30,13,51,9.60
2015,08,30,13,52,11.30
2015,08,30,13,53,12.90
2015,08,30,13,54,8.10
2015,08,30,13,55,9.60
2015,08,30,13,56,14.50
2015,08,30,13,57,8.10
2015,08,30,13,58,8.10
2015,08,30,13,59,8.10
2015,08,30,14,00,11.30
2015,08,30,14,01,11.30
2015,08,30,14,02,8.10
2015,08,30,14,03,8.10
2015,08,30,14,04,11.30
2015,08,30,14,05,14.50
2015,08,30,14,06,9.60
2015,08,30,14,07,11.30
2015,08,30,14,08,8.10
2015,08,30,14,09,11.30
2015,08,30,14,10,11.30
2015,08,30,14,11,12.90
2015,08,30,14,12,17.70
2015,08,30,14,13,14.50
2015,08,30,14,14,8.10
2015,08,30,14,15,4.80
2015,08,30,14,16,9.60
2015,08,30,14,17,17.70
2015,08,30,14,18,9.60
2015,08,30,14,19,12.90
2015,08,30,14,20,9.60
2015,08,30,14,21,8.10
2015,08,30,14,22,9.60
2015,08,30,14,23,11.30
2015,08,30,14,24,12.90
2015,08,30,14,25,11.30
2015,08,30,14,26,9.60
2015,08,30,14,27,11.30
2015,08,30,14,28,9.60
2015,08,30,14,29,11.30
2015,08,30,14,30,12.90
2015,08,30,14,31,9.60
2015,08,30,14,32,9.60
2015,08,30,14,33,12.90
2015,08,30,14,34,14.50
2015,08,30,14,35,14.50
2015,08,30,14,36,11.30
2015,08,30,14,37,12.90
2015,08,30,14,38,4.80
2015,08,30,14,39,8.10
2015,08,30,14,40,9.60
2015,08,30,14,41,1.60
2015,08,30,14,43,11.30
2015,08,30,14,44,8.10
2015,08,30,14,45,9.60
2015,08,30,14,46,12.90
2015,08,30,14,47,9.60
2015,08,30,14,48,8.10
2015,08,30,14,49,12.90
2015,08,30,14,50,9.60
2015,08,30,14,51,9.60
2015,08,30,14,52,12.90
2015,08,30,14,53,12.90
2015,08,30,14,54,11.30
2015,08,30,14,55,16.10
2015,08,30,14,56,14.50
2015,08,30,14,57,11.30
2015,08,30,14,58,9.60
2015,08,30,14,59,16.10
2015,08,30,15,00,16.10
2015,08,30,15,01,19.30
2015,08,30,15,02,12.90
2015,08,30,15,03,9.60
2015,08,30,15,04,6.40
2015,08,30,15,05,1.60
2015,08,30,15,06,11.30
2015,08,30,15,07,14.50
2015,08,30,15,08,12.90
2015,08,30,15,09,9.60
2015,08,30,15,10,17.70
2015,08,30,15,11,14.50
2015,08,30,15,12,14.50
2015,08,30,15,13,6.40
2015,08,30,15,14,3.20
2015,08,30,15,15,11.30
2015,08,30,15,16,9.60
2015,08,30,15,17,9.60
2015,08,30,15,18,6.40
2015,08,30,15,19,8.10
2015,08,30,15,20,11.30
2015,08,30,15,21,8.10
2015,08,30,15,22,9.60
2015,08,30,15,23,11.30
2015,08,30,15,24,11.30
2015,08,30,15,25,16.10
2015,08,30,15,26,14.50
2015,08,30,15,27,12.90
2015,08,30,15,28,4.80
2015,08,30,15,30,6.40
2015,08,30,15,31,11.30
2015,08,30,15,32,14.50
2015,08,30,15,33,14.50
2015,08,30,15,34,8.10
2015,08,30,15,35,9.60
2015,08,30,15,36,8.10
2015,08,30,15,37,12.90
2015,08,30,15,38,8.10
2015,08,30,15,39,6.40
2015,08,30,15,40,14.50
2015,08,30,15,41,14.50
2015,08,30,15,42,16.10
2015,08,30,15,43,14.50
2015,08,30,15,44,11.30
2015,08,30,15,45,8.10
2015,08,30,15,46,6.40
2015,08,30,15,47,9.60
2015,08,30,15,48,9.60
2015,08,30,15,50,9.60
2015,08,30,15,51,14.50
2015,08,30,15,52,11.30
2015,08,30,15,53,9.60
2015,08,30,15,54,12.90
2015,08,30,15,55,16.10
2015,08,30,15,56,16.10
2015,08,30,15,57,11.30
2015,08,30,15,58,14.50
2015,08,30,15,59,12.90
2015,08,30,16,00,11.30
2015,08,30,16,01,9.60
2015,08,30,16,02,12.90
2015,08,30,16,03,11.30
2015,08,30,16,04,14.50
2015,08,30,16,05,12.90
2015,08,30,16,06,19.30
2015,08,30,16,07,29.00
2015,08,30,16,08,22.50
2015,08,30,16,09,14.50
2015,08,30,16,10,17.70
2015,08,30,16,11,19.30
2015,08,30,16,12,11.30
2015,08,30,16,13,11.30
2015,08,30,16,14,6.40
2015,08,30,16,15,8.10
2015,08,30,16,16,9.60
2015,08,30,16,17,4.80
2015,08,30,16,18,3.20
2015,08,30,16,19,8.10
2015,08,30,16,20,9.60
2015,08,30,16,21,11.30
2015,08,30,16,22,6.40
2015,08,30,16,23,9.60
2015,08,30,16,24,9.60
2015,08,30,16,25,9.60
2015,08,30,16,26,6.40
2015,08,30,16,27,9.60
2015,08,30,16,28,6.40
2015,08,30,16,29,1.60
2015,08,30,16,30,6.40
2015,08,30,16,31,9.60
2015,08,30,16,32,6.40
2015,08,30,16,33,9.60
2015,08,30,16,34,6.40
2015,08,30,16,35,6.40
2015,08,30,16,36,6.40
2015,08,30,16,37,9.60
2015,08,30,16,38,6.40
2015,08,30,16,39,6.40
2015,08,30,16,40,9.60
2015,08,30,16,41,3.20
2015,08,30,16,42,11.30
2015,08,30,16,43,14.50
2015,08,30,16,44,11.30
2015,08,30,16,45,12.90
2015,08,30,16,46,9.60
2015,08,30,16,47,12.90
2015,08,30,16,48,9.60
2015,08,30,16,49,8.10
2015,08,30,16,50,8.10
2015,08,30,16,51,3.20
2015,08,30,16,52,16.10
2015,08,30,16,53,12.90
2015,08,30,16,54,14.50
2015,08,30,16,55,14.50
2015,08,30,16,56,12.90
2015,08,30,16,57,12.90
2015,08,30,16,58,12.90
2015,08,30,16,59,9.60
2015,08,30,17,00,12.90
2015,08,30,17,01,12.90
2015,08,30,17,02,12.90
2015,08,30,17,03,11.30
2015,08,30,17,04,14.50
2015,08,30,17,05,11.30
2015,08,30,17,06,16.10
2015,08,30,17,07,17.70
2015,08,30,17,08,11.30
2015,08,30,17,09,12.90
2015,08,30,17,10,12.90
2015,08,30,17,11,12.90
2015,08,30,17,12,8.10
2015,08,30,17,13,12.90
2015,08,30,17,14,1.60
2015,08,30,17,15,12.90
2015,08,30,17,16,11.30
2015,08,30,17,17,9.60
2015,08,30,17,18,9.60
2015,08,30,17,19,12.90
2015,08,30,17,20,19.30
2015,08,30,17,21,12.90
2015,08,30,17,22,17.70
2015,08,30,17,23,14.50
2015,08,30,17,24,17.70
2015,08,30,17,25,8.10
2015,08,30,17,26,16.10
2015,08,30,17,27,20.90
2015,08,30,17,28,17.70
2015,08,30,17,29,12.90
2015,08,30,17,30,9.60
2015,08,30,17,31,12.90
2015,08,30,17,32,12.90
2015,08,30,17,33,9.60
2015,08,30,17,34,14.50
2015,08,30,17,35,9.60
2015,08,30,17,36,8.10
2015,08,30,17,37,1.60
2015,08,30,17,38,8.10
2015,08,30,17,39,9.60
2015,08,30,17,40,12.90
2015,08,30,17,41,11.30
2015,08,30,17,42,17.70
2015,08,30,17,43,11.30
2015,08,30,17,44,11.30
2015,08,30,17,45,19.30
2015,08,30,17,46,12.90
2015,08,30,17,47,16.10
2015,08,30,17,48,17.70
2015,08,30,17,49,17.70
2015,08,30,17,50,16.10
2015,08,30,17,51,17.70
2015,08,30,17,52,20.90
2015,08,30,17,53,12.90
2015,08,30,17,54,12.90
2015,08,30,17,55,14.50
2015,08,30,17,56,17.70
2015,08,30,17,57,17.70
2015,08,30,17,58,19.30
2015,08,30,17,59,17.70
2015,08,30,18,00,19.30
2015,08,30,18,01,22.50
2015,08,30,18,02,19.30
2015,08,30,18,03,11.30
2015,08,30,18,04,8.10
2015,08,30,18,05,12.90
2015,08,30,18,06,12.90
2015,08,30,18,07,17.70
2015,08,30,18,08,11.30
2015,08,30,18,09,11.30
2015,08,30,18,10,6.40
2015,08,30,18,11,9.60
2015,08,30,18,12,12.90
2015,08,30,18,13,12.90
2015,08,30,18,14,9.60
2015,08,30,18,15,14.50
2015,08,30,18,16,14.50
2015,08,30,18,17,12.90
2015,08,30,18,18,11.30
2015,08,30,18,19,9.60
2015,08,30,18,20,9.60
2015,08,30,18,21,11.30
2015,08,30,18,22,8.10
2015,08,30,18,23,11.30
2015,08,30,18,24,11.30
2015,08,30,18,25,9.60
2015,08,30,18,26,8.10
2015,08,30,18,27,9.60
2015,08,30,18,28,11.30
2015,08,30,18,29,8.10
2015,08,30,18,30,12.90
2015,08,30,18,31,12.90
2015,08,30,18,32,9.60
2015,08,30,18,33,6.40
2015,08,30,18,34,8.10
2015,08,30,18,35,8.10
2015,08,30,18,36,6.40
2015,08,30,18,37,9.60
2015,08,30,18,38,6.40
2015,08,30,18,39,14.50
2015,08,30,18,40,8.10
2015,08,30,18,41,8.10
2015,08,30,18,42,3.20
2015,08,30,18,43,6.40
2015,08,30,18,44,12.90
2015,08,30,18,45,20.90
2015,08,30,18,46,19.30
2015,08,30,18,47,14.50
2015,08,30,18,48,9.60
2015,08,30,18,49,9.60
2015,08,30,18,50,11.30
2015,08,30,18,51,12.90
2015,08,30,18,52,12.90
2015,08,30,18,53,22.50
2015,08,30,18,54,17.70
2015,08,30,18,55,19.30
2015,08,30,18,56,9.60
2015,08,30,18,57,14.50
2015,08,30,18,58,9.60
2015,08,30,18,59,11.30
2015,08,30,19,00,8.10
2015,08,30,19,01,6.40
2015,08,30,19,02,3.20
2015,08,30,19,03,4.80
2015,08,30,19,04,6.40
2015,08,30,19,05,9.60
2015,08,30,19,06,8.10
2015,08,30,19,07,6.40
2015,08,30,19,08,1.60
2015,08,30,19,09,16.10
2015,08,30,19,10,20.90
2015,08,30,19,11,9.60
2015,08,30,19,12,14.50
2015,08,30,19,13,17.70
2015,08,30,19,14,9.60
2015,08,30,19,15,8.10
2015,08,30,19,16,8.10
2015,08,30,19,17,19.30
2015,08,30,19,18,22.50
2015,08,30,19,19,19.30
2015,08,30,19,20,11.30
2015,08,30,19,21,8.10
2015,08,30,19,22,22.50
2015,08,30,19,23,16.10
2015,08,30,19,24,12.90
2015,08,30,19,25,12.90
2015,08,30,19,26,9.60
2015,08,30,19,27,17.70
2015,08,30,19,28,14.50
2015,08,30,19,29,22.50
2015,08,30,19,30,20.90
2015,08,30,19,31,17.70
2015,08,30,19,32,27.40
2015,08,30,19,33,19.30
2015,08,30,19,34,19.30
2015,08,30,19,35,17.70
2015,08,30,19,36,17.70
2015,08,30,19,37,14.50
2015,08,30,19,38,11.30
2015,08,30,19,39,8.10
2015,08,30,19,40,14.50
2015,08,30,19,41,16.10
2015,08,30,19,42,11.30
2015,08,30,19,43,17.70
2015,08,30,19,44,11.30
2015,08,30,19,45,9.60
2015,08,30,19,46,11.30
2015,08,30,19,47,12.90
2015,08,30,19,48,20.90
2015,08,30,19,49,19.30
2015,08,30,19,50,19.30
2015,08,30,19,51,17.70
2015,08,30,19,52,17.70
2015,08,30,19,53,12.90
2015,08,30,19,54,22.50
2015,08,30,19,55,14.50
2015,08,30,19,56,14.50
2015,08,30,19,57,16.10
2015,08,30,19,58,12.90
2015,08,30,19,59,25.70
2015,08,30,20,00,25.70
2015,08,30,20,01,20.90
2015,08,30,20,02,25.70
2015,08,30,20,03,14.50
2015,08,30,20,04,11.30
2015,08,30,20,05,11.30
2015,08,30,20,06,19.30
2015,08,30,20,07,12.90
2015,08,30,20,08,9.60
2015,08,30,20,09,9.60
2015,08,30,20,10,11.30
2015,08,30,20,11,16.10
2015,08,30,20,12,12.90
2015,08,30,20,13,19.30
2015,08,30,20,14,12.90
2015,08,30,20,15,19.30
2015,08,30,20,16,20.90
2015,08,30,20,17,17.70
2015,08,30,20,18,17.70
2015,08,30,20,19,14.50
2015,08,30,20,20,22.50
2015,08,30,20,21,19.30
2015,08,30,20,22,9.60
2015,08,30,20,23,17.70
2015,08,30,20,24,22.50
2015,08,30,20,25,25.70
2015,08,30,20,26,12.90
2015,08,30,20,27,19.30
2015,08,30,20,28,22.50
2015,08,30,20,29,20.90
2015,08,30,20,30,19.30
2015,08,30,20,31,16.10
2015,08,30,20,32,12.90
2015,08,30,20,33,14.50
2015,08,30,20,34,14.50
2015,08,30,20,35,16.10
2015,08,30,20,36,17.70
2015,08,30,20,37,20.90
2015,08,30,20,38,12.90
2015,08,30,20,39,19.30
2015,08,30,20,40,25.70
2015,08,30,20,41,17.70
2015,08,30,20,42,9.60
2015,08,30,20,43,22.50
2015,08,30,20,44,22.50
2015,08,30,20,45,24.20
2015,08,30,20,46,14.50
2015,08,30,20,47,12.90
2015,08,30,20,48,9.60
2015,08,30,20,49,12.90
2015,08,30,20,50,19.30
2015,08,30,20,51,20.90
2015,08,30,20,52,16.10
2015,08,30,20,53,19.30
2015,08,30,20,54,12.90
2015,08,30,20,55,9.60
2015,08,30,20,56,11.30
2015,08,30,20,57,22.50
2015,08,30,20,58,11.30
2015,08,30,20,59,16.10
2015,08,30,21,00,8.10
2015,08,30,21,01,8.10
2015,08,30,21,02,11.30
2015,08,30,21,03,12.90
2015,08,30,21,04,9.60
2015,08,30,21,05,9.60
2015,08,30,21,06,11.30
2015,08,30,21,07,24.20
2015,08,30,21,08,17.70
2015,08,30,21,09,17.70
2015,08,30,21,10,9.60
2015,08,30,21,11,9.60
2015,08,30,21,12,9.60
2015,08,30,21,13,12.90
2015,08,30,21,14,11.30
2015,08,30,21,15,12.90
2015,08,30,21,16,16.10
2015,08,30,21,17,8.10
2015,08,30,21,18,12.90
2015,08,30,21,19,11.30
2015,08,30,21,20,4.80
2015,08,30,21,21,11.30
2015,08,30,21,22,9.60
2015,08,30,21,23,12.90
2015,08,30,21,24,8.10
2015,08,30,21,25,16.10
2015,08,30,21,26,14.50
2015,08,30,21,27,16.10
2015,08,30,21,28,16.10
2015,08,30,21,29,8.10
2015,08,30,21,30,11.30
2015,08,30,21,31,14.50
2015,08,30,21,32,11.30
2015,08,30,21,33,11.30
2015,08,30,21,34,12.90
2015,08,30,21,35,8.10
2015,08,30,21,36,12.90
2015,08,30,21,37,6.40
2015,08,30,21,38,9.60
2015,08,30,21,39,11.30
2015,08,30,21,40,9.60
2015,08,30,21,41,11.30
2015,08,30,21,42,9.60
2015,08,30,21,43,6.40
2015,08,30,21,44,6.40
2015,08,30,21,45,6.40
2015,08,30,21,46,11.30
2015,08,30,21,47,11.30
2015,08,30,21,48,8.10
2015,08,30,21,49,11.30
2015,08,30,21,50,11.30
2015,08,30,21,51,8.10
2015,08,30,21,52,14.50
2015,08,30,21,53,9.60
2015,08,30,21,54,4.80
2015,08,30,21,55,4.80
2015,08,30,21,56,9.60
2015,08,30,21,57,6.40
2015,08,30,21,58,9.60
2015,08,30,21,59,11.30
2015,08,30,22,00,8.10
2015,08,30,22,01,6.40
2015,08,30,22,02,6.40
2015,08,30,22,03,8.10
2015,08,30,22,04,12.90
2015,08,30,22,05,8.10
2015,08,30,22,06,6.40
2015,08,30,22,07,8.10
2015,08,30,22,08,8.10
2015,08,30,22,09,6.40
2015,08,30,22,10,6.40
2015,08,30,22,11,11.30
2015,08,30,22,12,11.30
2015,08,30,22,13,11.30
2015,08,30,22,14,11.30
2015,08,30,22,15,11.30
2015,08,30,22,16,8.10
2015,08,30,22,17,9.60
2015,08,30,22,18,9.60
2015,08,30,22,19,11.30
2015,08,30,22,20,8.10
2015,08,30,22,21,9.60
2015,08,30,22,22,8.10
2015,08,30,22,23,6.40
2015,08,30,22,24,6.40
2015,08,30,22,25,6.40
2015,08,30,22,26,6.40
2015,08,30,22,27,6.40
2015,08,30,22,28,1.60
2015,08,30,22,29,6.40
2015,08,30,22,30,9.60
2015,08,30,22,31,6.40
2015,08,30,22,32,8.10
2015,08,30,22,33,6.40
2015,08,30,22,34,4.80
2015,08,30,22,35,4.80
2015,08,30,22,36,9.60
2015,08,30,22,37,8.10
2015,08,30,22,38,6.40
2015,08,30,22,39,9.60
2015,08,30,22,40,4.80
2015,08,30,22,41,11.30
2015,08,30,22,42,11.30
2015,08,30,22,43,9.60
2015,08,30,22,44,8.10
2015,08,30,22,45,11.30
2015,08,30,22,46,12.90
2015,08,30,22,47,12.90
2015,08,30,22,48,9.60
2015,08,30,22,49,4.80
2015,08,30,22,50,11.30
2015,08,30,22,51,8.10
2015,08,30,22,52,8.10
2015,08,30,22,53,12.90
2015,08,30,22,54,9.60
2015,08,30,22,55,9.60
2015,08,30,22,56,6.40
2015,08,30,22,57,3.20
2015,08,30,22,58,8.10
2015,08,30,22,59,6.40
2015,08,30,23,00,6.40
2015,08,30,23,01,3.20
2015,08,30,23,02,3.20
2015,08,30,23,03,6.40
2015,08,30,23,04,9.60
2015,08,30,23,05,8.10
2015,08,30,23,06,11.30
2015,08,30,23,07,11.30
2015,08,30,23,08,4.80
2015,08,30,23,09,8.10
2015,08,30,23,10,8.10
2015,08,30,23,11,8.10
2015,08,30,23,12,6.40
2015,08,30,23,13,6.40
2015,08,30,23,14,4.80
2015,08,30,23,15,4.80
2015,08,30,23,16,3.20
2015,08,30,23,17,8.10
2015,08,30,23,18,6.40
2015,08,30,23,19,12.90
2015,08,30,23,20,8.10
2015,08,30,23,21,8.10
2015,08,30,23,22,6.40
2015,08,30,23,23,6.40
2015,08,30,23,24,4.80
2015,08,30,23,27,4.80
2015,08,30,23,31,8.10
2015,08,30,23,32,8.10
2015,08,30,23,33,4.80
2015,08,30,23,34,1.60
2015,08,30,23,45,4.80
2015,08,30,23,46,4.80
2015,08,30,23,47,3.20
2015,08,30,23,48,1.60
